Change the Weather History Date:

Wednesday, August 21, 2013

  Actual Average Record
Temperature  
Mean Temperature 74 °F -  
Max Temperature 87 °F 78 °F 89 °F (2003)
Min Temperature 60 °F 53 °F 33 °F (2004)
Cooling Degree Days 8    
Growing Degree Days 24 (Base 50)    
Moisture  
Dew Point 63 °F    
Average Humidity 71    
Maximum Humidity 100    
Minimum Humidity 44    
Precipitation  
Precipitation 0.02 in - - ()
Sea Level Pressure  
Sea Level Pressure 30.05 in    
Wind  
Wind Speed 7 mph (SSW)    
Max Wind Speed 25 mph    
Max Gust Speed 38 mph    
Visibility 8 miles    
Events Rain    
Averages and records for this station are not official NWS values.
T = Trace of Precipitation, MM = Missing Value Source: NWS Daily Summary

Daily Weather History Graph

Daily Weather History Graph

Search for Another Location

Airport or City:

Trip Planner

Search our weather history database for the weather conditions in past years. The results will help you decide how hot, cold, wet, or windy it might be!

Date:

Astronomy

Aug. 21, 2013 Rise Set
Actual Time 6:53 AM EDT 8:35 PM EDT
Civil Twilight 6:22 AM EDT 9:06 PM EDT
Nautical Twilight 5:45 AM EDT 9:43 PM EDT
Astronomical Twilight 5:05 AM EDT 10:22 PM EDT
Moon 8:39 PM EDT (8/21) 7:35 AM EDT (8/21)
Length of Visible Light 14h 43m
Length of Day
13h 42m
Full, 100% of the Moon is Illuminated
Aug 21
Full
Aug 28
Last Quarter
Sep 5
New
Sep 12
First Quarter
Sep 19
Full

Hourly Weather History & Observations

Time (EDT) Temp. Heat Index Dew Point Humidity Pressure Visibility Wind Dir Wind Speed Gust Speed Precip Events Conditions
12:15 AM 64.6 °F - 63.5 °F 96% 30.08 in 7.0 mi SE 3.5 mph - N/A   Clear
12:34 AM 63.7 °F - 61.5 °F 93% 30.08 in 10.0 mi SE 4.6 mph - N/A   Clear
12:55 AM 63.1 °F - 62.6 °F 98% 30.08 in 7.0 mi East 6.9 mph - N/A   Clear
1:15 AM 62.6 °F - 62.2 °F 99% 30.08 in 7.0 mi East 6.9 mph - N/A   Clear
1:34 AM 62.4 °F - 62.4 °F 100% 30.08 in 5.0 mi ESE 8.1 mph - N/A   Clear
1:55 AM 61.5 °F - 61.5 °F 100% 30.08 in 5.0 mi SE 5.8 mph - N/A   Clear
2:15 AM 61.3 °F - 61.3 °F 100% 30.08 in 5.0 mi SE 4.6 mph - N/A   Clear
2:34 AM 61.3 °F - 61.3 °F 100% 30.08 in 5.0 mi SE 4.6 mph - N/A   Clear
2:55 AM 61.0 °F - 61.0 °F 100% 30.08 in 4.0 mi SE 4.6 mph - N/A   Clear
3:15 AM 61.0 °F - 61.0 °F 100% 30.07 in 4.0 mi SE 3.5 mph - N/A   Clear
3:34 AM 60.8 °F - 60.8 °F 100% 30.07 in 3.0 mi SE 3.5 mph - N/A   Clear
3:55 AM 61.0 °F - 61.0 °F 100% 30.07 in 3.0 mi SE 3.5 mph - N/A   Clear
4:15 AM 61.2 °F - 61.2 °F 100% 30.07 in 3.0 mi Calm Calm - N/A   Clear
4:35 AM 61.0 °F - 61.0 °F 100% 30.07 in 3.0 mi Calm Calm - N/A   Clear
4:55 AM 61.3 °F - 61.3 °F 100% 30.07 in 4.0 mi SE 3.5 mph - N/A   Clear
5:15 AM 61.3 °F - 61.3 °F 100% 30.07 in 3.0 mi SE 3.5 mph - N/A   Clear
5:35 AM 61.2 °F - 61.2 °F 100% 30.07 in 3.0 mi SE 3.5 mph - N/A   Clear
5:55 AM 61.2 °F - 61.2 °F 100% 30.08 in 2.5 mi SE 3.5 mph - N/A   Clear
6:15 AM 61.7 °F - 61.7 °F 100% 30.08 in 3.0 mi SSE 4.6 mph - N/A   Clear
6:35 AM 61.9 °F - 61.9 °F 100% 30.08 in 3.0 mi SE 6.9 mph - N/A   Clear
6:55 AM 61.2 °F - 61.2 °F 100% 30.08 in 1.8 mi SE 3.5 mph - N/A   Mist
7:15 AM 61.5 °F - 61.5 °F 100% 30.08 in 1.5 mi ESE 8.1 mph - N/A   Mist
7:35 AM 62.2 °F - 62.2 °F 100% 30.09 in 2.0 mi ESE 9.2 mph - N/A   Clear
7:55 AM 63.5 °F - 63.5 °F 100% 30.09 in 2.5 mi ESE 9.2 mph - N/A   Clear
8:15 AM 65.5 °F - 65.5 °F 100% 30.09 in 4.0 mi SE 3.5 mph - N/A   Clear
8:35 AM 68.4 °F - 66.7 °F 95% 30.09 in 5.0 mi SSE 5.8 mph - N/A   Scattered Clouds
8:55 AM 70.9 °F - 67.6 °F 89% 30.09 in 7.0 mi SSE 5.8 mph - N/A   Scattered Clouds
9:14 AM 73.0 °F - 68.2 °F 85% 30.09 in 7.0 mi South 6.9 mph - N/A   Scattered Clouds
9:35 AM 76.1 °F - 65.5 °F 70% 30.08 in 10.0 mi WSW 5.8 mph - N/A   Clear
9:55 AM 78.1 °F - 65.1 °F 64% 30.09 in 10.0 mi WSW 9.2 mph - N/A   Clear
10:14 AM 78.8 °F - 64.9 °F 62% 30.08 in 10.0 mi SW 10.4 mph 16.1 mph N/A   Clear
10:35 AM 78.8 °F - 65.1 °F 63% 30.08 in 10.0 mi WSW 12.7 mph 19.6 mph N/A   Mostly Cloudy
10:55 AM 78.1 °F - 65.3 °F 65% 30.08 in 10.0 mi SW 11.5 mph 18.4 mph N/A   Mostly Cloudy
11:14 AM 80.8 °F 82.6 °F 65.5 °F 59% 30.08 in 10.0 mi WSW 13.8 mph 17.3 mph N/A   Scattered Clouds
11:35 AM 80.8 °F 82.4 °F 64.4 °F 57% 30.07 in 10.0 mi SW 15.0 mph 24.2 mph N/A   Mostly Cloudy
11:55 AM 81.3 °F 83.0 °F 64.6 °F 57% 30.07 in 10.0 mi WSW 13.8 mph 19.6 mph N/A   Scattered Clouds
12:14 PM 82.8 °F 84.3 °F 64.8 °F 54% 30.06 in 10.0 mi SSW 13.8 mph 20.7 mph N/A   Scattered Clouds
12:35 PM 83.8 °F 85.3 °F 64.8 °F 52% 30.06 in 10.0 mi SW 12.7 mph 20.7 mph N/A   Clear
12:55 PM 84.7 °F 86.3 °F 64.8 °F 51% 30.06 in 10.0 mi SW 10.4 mph 21.9 mph N/A   Clear
1:14 PM 85.3 °F 87.1 °F 65.3 °F 51% 30.06 in 10.0 mi SW 6.9 mph 18.4 mph N/A   Clear
1:35 PM 86.4 °F 87.3 °F 63.1 °F 46% 30.06 in 10.0 mi SW 17.3 mph 25.3 mph N/A   Scattered Clouds
1:55 PM 84.9 °F 85.9 °F 63.5 °F 48% 30.06 in 10.0 mi SSW 12.7 mph 19.6 mph N/A   Mostly Cloudy
2:14 PM 85.6 °F 86.3 °F 63.0 °F 46% 30.05 in 10.0 mi SW 15.0 mph 19.6 mph N/A   Mostly Cloudy
2:35 PM 86.4 °F 87.3 °F 63.5 °F 46% 30.04 in 10.0 mi WSW 11.5 mph 19.6 mph N/A   Scattered Clouds
2:55 PM 87.1 °F 88.0 °F 63.5 °F 45% 30.04 in 10.0 mi South 15.0 mph 20.7 mph N/A   Scattered Clouds
3:14 PM 86.5 °F 87.6 °F 63.3 °F 46% 30.04 in 10.0 mi SW 15.0 mph 18.4 mph N/A   Mostly Cloudy
3:35 PM 87.3 °F 88.3 °F 63.3 °F 45% 30.02 in 10.0 mi SW 16.1 mph 20.7 mph N/A   Scattered Clouds
3:55 PM 87.8 °F 88.8 °F 63.1 °F 44% 30.02 in 10.0 mi SW 12.7 mph 20.7 mph N/A   Scattered Clouds
4:15 PM 87.6 °F 88.5 °F 63.1 °F 44% 30.01 in 10.0 mi SW 13.8 mph 19.6 mph N/A   Scattered Clouds
4:35 PM 87.1 °F 87.8 °F 63.0 °F 44% 30.01 in 10.0 mi SW 15.0 mph 23.0 mph N/A   Scattered Clouds
4:54 PM 86.9 °F 87.8 °F 63.1 °F 45% 30.01 in 10.0 mi SW 15.0 mph 20.7 mph N/A   Scattered Clouds
5:15 PM 86.9 °F 87.8 °F 63.0 °F 45% 30.00 in 10.0 mi West 16.1 mph - N/A   Clear
5:35 PM 86.2 °F 86.8 °F 62.6 °F 45% 30.00 in 10.0 mi WSW 13.8 mph 24.2 mph N/A   Clear
5:54 PM 86.0 °F 86.6 °F 62.6 °F 45% 29.98 in 10.0 mi SW 10.4 mph 21.9 mph N/A   Clear
6:15 PM 85.3 °F 85.9 °F 62.2 °F 46% 29.98 in 10.0 mi SW 12.7 mph 21.9 mph N/A   Clear
6:35 PM 84.9 °F 85.6 °F 62.8 °F 47% 29.97 in 10.0 mi SW 9.2 mph 19.6 mph N/A   Clear
6:54 PM 84.0 °F 84.9 °F 62.8 °F 49% 29.96 in 10.0 mi SSW 11.5 mph 18.4 mph N/A   Clear
7:15 PM 82.8 °F 83.4 °F 62.1 °F 49% 29.97 in 10.0 mi SW 10.4 mph - N/A   Clear
7:35 PM 82.0 °F 82.8 °F 61.7 °F 50% 29.96 in 10.0 mi SW 10.4 mph - N/A   Clear
7:55 PM 81.1 °F 82.0 °F 61.7 °F 51% 29.97 in 10.0 mi SW 5.8 mph - N/A   Clear
8:15 PM 79.9 °F - 62.1 °F 54% 29.98 in 10.0 mi SSW 5.8 mph - N/A   Scattered Clouds
8:35 PM 79.0 °F - 62.2 °F 56% 29.99 in 10.0 mi SSW 10.4 mph - N/A   Mostly Cloudy
8:55 PM 78.4 °F - 62.6 °F 58% 29.98 in 10.0 mi SSW 11.5 mph - N/A   Mostly Cloudy
9:15 PM 78.1 °F - 62.6 °F 59% 30.00 in 10.0 mi SSW 6.9 mph - N/A   Overcast
9:35 PM 77.2 °F - 62.6 °F 61% 30.00 in 10.0 mi SSW 8.1 mph - N/A   Mostly Cloudy
9:55 PM 78.1 °F - 62.6 °F 59% 30.01 in 10.0 mi SSW 9.2 mph - N/A   Mostly Cloudy
10:15 PM 77.4 °F - 63.0 °F 61% 30.00 in 10.0 mi SSW 8.1 mph - N/A   Overcast
10:35 PM 78.1 °F - 63.1 °F 60% 30.00 in 10.0 mi SW 5.8 mph - N/A   Mostly Cloudy
10:55 PM 77.9 °F - 63.1 °F 60% 30.00 in 10.0 mi SSW 6.9 mph - N/A   Mostly Cloudy
11:15 PM 78.3 °F - 63.5 °F 60% 29.99 in 10.0 mi SW 6.9 mph - N/A   Overcast
11:35 PM 77.7 °F - 62.4 °F 59% 30.04 in 10.0 mi NW 25.3 mph 38.0 mph N/A   Overcast
11:55 PM 70.9 °F - 62.1 °F 74% 30.06 in 7.0 mi NNW 13.8 mph 23.0 mph 0.02 in Rain Rain